Regional Weather Roundup
Issued by NWS

Home | Current Version | Previous Version | Graphics & Text | Print | Product List | Glossary On
Versions: 1 2 3 4 5 6 7 8 9 10 11 12 13 14 15 16 17 18 19 20 21 22 23 24 25 26 27 28 29 30 31 32 33 34 35 36 37 38 39 40 41 42 43 44 45 46 47 48 49 50
647
ASUS43 KBIS 240710
RWRND

NORTH DAKOTA REGIONAL WEATHER ROUNDUP
NATIONAL WEATHER SERVICE BISMARCK ND
200 AM CDT FRI MAR 24 2017

NOTE: "FAIR" INDICATES FEW OR NO CLOUDS BELOW 12,000 FEET WITH NO
SIGNIFICANT WEATHER AND/OR OBSTRUCTIONS TO VISIBILITY.


NDZ001>003-009>011-017-240800-
NORTHWEST NORTH DAKOTA

CITY           SKY/WX    TMP DP  RH WIND       PRES   REMARKS
WILLISTON      FAIR      32  30  92 N8        29.95S
MINOT          FAIR      32  28  85 N13       29.91F
MINOT AFB      CLEAR     33  27  79 N13       29.91F
$$

NDZ018>021-031>035-040>046-240800-
SOUTHWEST NORTH DAKOTA

CITY           SKY/WX    TMP DP  RH WIND       PRES   REMARKS
BISMARCK       FAIR      33  31  92 E5        29.97R
DICKINSON      FAIR      32  30  92 S7        29.90R
GARRISON         N/A     31  28  89 N6        29.90S
HETTINGER ARPT MOCLDY    36  34  92 S6        29.96R
$$

NDZ004>008-012>016-024-026-027-054-240800-
NORTHEAST NORTH DAKOTA

CITY           SKY/WX    TMP DP  RH WIND       PRES   REMARKS
GRAND FORKS    CLEAR     33  32  96 N8        29.92R
GRND FRKS AFB  CLEAR     33  32  99 N10       29.93R
DEVILS LAKE    FAIR      31  29  92 N10       29.92R
$$

NDZ022-023-025-028>030-036>039-047>053-240800-
SOUTHEAST NORTH DAKOTA

CITY           SKY/WX    TMP DP  RH WIND       PRES   REMARKS
FARGO          CLOUDY    34  34 100 CALM      29.92R FOG
JAMESTOWN      FAIR      33  32  96 N9        29.93R
$$





USA.gov is the U.S. government's official web portal to all federal, state and local government web resources and services.